Regional Weather Roundup
Issued by NWS Charleston, SC

Current Version | Previous Version | Graphics & Text | Print | Product List | Glossary On
Versions: 1 2 3 4 5 6 7 8 9 10 11 12 13 14 15 16 17 18 19 20 21 22 23 24 25 26 27 28 29 30 31 32 33 34 35 36 37 38 39 40 41 42 43 44 45 46 47 48 49 50
000 ASUS42 KCHS 300527 RWRCHS REGIONAL WEATHER ROUNDUP NATIONAL WEATHER SERVICE CHARLESTON SC 100 AM EDT SAT MAY 30 2015 NOTE: "FAIR" INDICATES FEW OR NO CLOUDS BELOW 12,000 FEET WITH NO SIGNIFICANT WEATHER AND/OR OBSTRUCTIONS TO VISIBILITY. NOT ALL STATIONS ARE QUALITY CONTROLLED BY THE NATIONAL WEATHER SERVICE. USE DATA WITH CAUTION...ESPECIALLY DEWPOINT OBSERVATIONS. SCZ027-030-031-034>040-042>050-300600- ...SOUTHEAST SOUTH CAROLINA... CITY SKY/WX TMP DP RH WIND PRES REMARKS N CHARLESTON PTCLDY 71 68 90 NE3 30.16F WATERFRONT PAR N/A 75 72 90 E7 30.14F MOUNT PLEASANT FAIR 70 70 100 CALM 30.16F JOHNS ISLAND PTCLDY 73 70 88 E6 30.16F PINOPOLIS N/A 73 70 88 VRB3 30.11S MONCKS CORNER FAIR 68 64 88 CALM 30.16F FOG SUMMERVILLE FAIR 66 66 100 N3 30.17F BEAUFORT MCAS CLEAR 73 70 90 E5 30.15F BEAUFORT ARPT FAIR 70 70 100 CALM 30.14F HILTON HEAD IS CLEAR 75 70 83 NE6 30.15F WALTERBORO CLEAR 64 63 94 CALM 30.17S ALLENDALE FAIR 70 66 88 CALM 30.15F ...SOUTHERN MIDLANDS AND PEE DEE... CITY SKY/WX TMP DP RH WIND PRES REMARKS GEORGETOWN NOT AVBL KINGSTREE NOT AVBL ORANGEBURG CLEAR 71 65 81 E3 30.18F BARNWELL FAIR 72 66 83 E3 30.17F AIKEN FAIR 68 61 77 SE3 30.21S MANNING FAIR 64 61 88 CALM 30.18S COLUMBIA PTCLDY 73 64 73 CALM 30.17F SUMTER CLEAR 70 67 89 S2 30.16F FLORENCE CLEAR 70 66 87 CALM 30.18F MYRTLE BEACH MOCLDY 75 66 73 SE8 30.19F N MYRTLE BEACH CLOUDY 76 70 82 SE6 30.17F $$ GAZ063-065-086>088-099>101-113>116-118-119-134>141-150-300600- ...SOUTHEAST GEORGIA... CITY SKY/WX TMP DP RH WIND PRES REMARKS SAVANNAH ARPT CLEAR 72 68 87 E5 30.15F HUNTER AAF CLEAR 73 70 89 VRB1 30.12F FORT STEWART CLEAR 69 66 92 CALM 30.13S STATESBORO CLEAR 68 68 100 CALM 30.15F SYLVANIA CLEAR 70 69 97 CALM 30.16F CLAXTON FAIR 66 66 100 CALM 30.15F ...CSRA...CENTRAL AND FAR SOUTHEAST GEORGIA... CITY SKY/WX TMP DP RH WIND PRES REMARKS THOMSON CLEAR 71 69 94 CALM 30.20F AUGUSTA-BUSH CLEAR 69 65 86 SE6 30.16S AUGUSTA-DANIEL CLEAR 75 65 70 SE7 30.17F SWAINSBORO FAIR 73 70 88 SE5 30.16F VIDALIA MOCLDY 73 68 83 SE5 30.15F EASTMAN FAIR 72 69 90 CALM 30.17F HAZLEHURST CLOUDY 74 69 82 CALM 30.14F ALMA CLOUDY 73 66 78 CALM 30.14F WAYCROSS CLOUDY 72 70 92 E3 30.13F JESUP FAIR 73 70 88 CALM 30.14F BAXLEY CLOUDY 73 68 83 E3 30.14F BRUNSWICK CLEAR 70 68 94 CALM 30.13F SAINT SIMONS NOT AVBL $$ SCZ027-028-034-036>038-045-046-048>050-GAZ119-141-300600- ...LAKE AND SUPPLEMENTAL COASTAL OBSERVATIONS... STATION/POSITION TIME TEMP WIND PRES WAVE SWELL AIR SEA DIR/SP/G HT/PER HT/PER/DIR (UTC) (F) (DEG/KT/KT) (MB) (FT/S) (FT/S/D) UPR LAKE MARION NOT AVBL WINYAH BAY 0400 75 110/ 5 1021.0S LAKE MURRAY 0400 76 150/ 8/ 12 1021.3F ACE BASIN NERRS NOT AVBL FORT PULASKI 0500 77 80 70/ 13/ 15 1021.1F SAPELO ISLAND 0500 70 60/ 3 1020.0F $$ ANZ835-935-AMZ111-154-330-350-352-354-370-450-454-472-300600- ...C-MAN AND BUOY OBSERVATIONS... STATION/POSITION TIME TEMP WIND PRES WAVE SWELL AIR SEA DIR/SP/G HT/PER HT/PER/DIR (UTC) (F) (DEG/KT/KT) (MB) (FT/S) (FT/S/D) BUOY 41004 0450 77 78 90/ 14/ 16 1020.8F 5/ 8 3/ 8 BUOY 41008 0450 78 78 100/ 6/ 8 1020.6F 4/ 9 3/110/ 9 FOLLY BEACH CMAN 0500 76 90/ 12/ 13 1021.3F CAPERS NEARSHORE 0408 76 100/ 10/ 12 1021.8F FRIPP NEARSHORE 0400 77 90/ 12/ 14 1021.1F STATION/POSITION TIME TEMP WIND PRES WAVE SWELL AIR SEA DIR/SP/G HT/PER HT/PER/DIR (UTC) (F) (DEG/KT/KT) (MB) (FT/S) (FT/S/D) 5E ST. MARYS GA 0421 80 N/A 3/ 9 FRYING PAN BUOY 0450 77 75 130/ 10/ 14 1022.6F 4/ 8 3/100/ 8 BUOY 41025 0450 76 80 140/ 10/ 14 1023.0F 4/ 8 3/100/ 8 CAPE LOOKOUT NC 0500 75 130/ 9/ 10 1022.3F BUOY 41002 0450 74 74 80/ 16/ 17 1021.8F 6/ 9 5/ 80/ 9 BUOY 41010 0420 78 80 70/ 12/ 14 1019.2F ST AUGUSTINE FL 0500 76 79 40/ 10/ 11 1020.2F $$

USA.gov is the U.S. government's official web portal to all federal, state and local government web resources and services.